Location: Dalton
(34.7700°N, 84.9700°W)
Time: 21:24:56
(UTC-05:00)

Envisat - Pass Details

Date: 10 October 2017
Orbit: 764 x 766 km, 98.2° (Epoch: 09 December)

Event Time Altitude Azimuth Distance (km) Brightness Sun altitude
Exits shadow 22:47:53 11° 304° (NW) 2,209 5.9 -44.2°
Drops below altitude 10° 22:48:17 10° 308° (NW) 2,306 6.0 -44.3°
Sets 22:51:23 0° 328° (NNW) 3,238 6.9 -44.8°
